Temperature
14 14 14 14 14 14 14 14 14 14 14 14 14 14 14 14 14 14 14 14 14 13 13 13 13 13 13 13 13 13 13 14 14 14 14 14 14 14
14 14 14 14 14 14 14 14 14 14 14 14 14 14 14 14 14 14 14 14 13 13 13 13 13 13 13 13 13 13 13 13 13 13 14 14 14 14
14 14 14 14 14 14 14 14 14 14 14 14 14 14 14 14 14 14 13 13 13 13 13 13 13 13 13 13 13 13 13 13 13 13 13 13 14 14
14 14 14 14 14 14 14 14 14 14 13 14 14 14 14 14 13 13 13 13 13 13 13 13 13 13 13 13 13 13 13 13 13 13 13 13 13 13
15 14 14 14 14 14 14 14 14 13 13 13 14 14 14 13 13 13 13 13 13 13 13 13 13 13 13 13 13 13 13 13 13 13 13 13 13 13
15 14 14 14 14 14 14 14 14 13 13 13 13 13 13 13 13 13 13 13 13 13 13 13 13 13 13 13 13 13 13 13 13 13 13 13 13 13
15 14 14 14 14 14 14 14 13 13 13 13 13 13 13 13 13 13 13 13 13 13 13 13 13 13 13 13 13 13 13 13 13 13 12 12 13 12
15 14 14 14 14 14 14 14 13 13 13 13 13 13 13 13 13 13 12 12 12 13 13 13 13 13 13 13 13 13 13 13 13 12 12 12 12 12
14 14 14 14 14 14 14 13 13 13 13 13 13 13 13 13 12 12 12 12 12 12 12 12 13 13 13 13 13 13 13 13 13 12 12 12 12 12
14 14 14 14 14 14 13 13 13 13 13 13 13 13 13 12 12 12 12 12 12 12 12 12 12 12 13 12 12 12 12 12 12 12 12 12 12 12
14 13 13 13 13 13 13 13 13 13 13 13 12 12 12 12 12 11 11 11 11 12 12 11 12 12 12 12 12 12 12 12 12 12 12 12 12 12
13 13 13 13 13 13 12 12 13 13 12 12 12 12 12 12 12 11 11 11 11 11 12 11 11 11 11 12 12 12 12 12 12 12 11 11 11 11
13 13 13 12 12 12 12 12 12 12 11 11 11 12 12 12 11 11 11 11 10 10 11 10 10 10 10 10 11 11 11 11 11 11 11 11 11 11
12 12 12 12 11 11 11 11 11 11 11 11 11 11 11 11 11 11 11 10 10 10 10 10 10 10 9 9 10 10 11 11 11 11 11 11 11 11
11 11 11 11 11 11 10 10 10 10 10 10 10 10 10 10 10 10 10 10 10 10 10 10 9 9 9 9 9 9 10 10 11 11 11 11 11 11
11 10 10 10 10 10 10 10 10 10 9 9 9 9 9 9 9 9 9 9 9 10 10 10 9 9 9 9 9 9 9 9 10 10 11 11 11 11
10 10 10 10 10 10 10 10 9 9 9 9 9 9 9 9 9 9 8 8 8 8 9 9 9 9 8 8 8 9 9 9 10 10 10 10 10 10
10 9 9 9 9 9 9 9 9 9 9 8 8 8 8 8 8 8 8 8 8 8 8 8 8 8 8 8 8 8 8 9 9 9 9 9 10 10
9 9 9 9 9 8 8 8 8 8 8 8 8 8 7 7 7 7 7 7 7 7 7 7 7 7 7 7 8 8 8 8 8 9 9 9 9 10
9 9 8 8 8 8 8 8 7 7 7 7 7 7 7 7 7 7 7 7 7 6 6 7 7 6 6 6 7 7 8 8 8 8 8 8 9 9
8 8 8 8 8 7 7 7 7 7 7 7 7 6 6 6 6 6 6 6 6 6 6 6 6 6 6 6 6 7 7 8 8 8 8 8 8 8
8 8 7 7 7 7 7 6 6 6 6 6 6 6 6 6 6 6 6 6 6 6 6 6 6 6 6 6 6 6 7 7 8 8 8 8 8 8
7 7 7 7 6 6 6 6 6 6 6 6 5 5 5 5 5 5 5 5 5 5 5 5 5 5 5 6 6 6 6 7 7 7 8 8 8 8
Wind_Speed
4 4 3 2 2 2 3 3 4 2 2 2 2 2 3 3 4 4 6 8 8 9 10 10 11 11 11 11 11 11 11 11 11 11 12 13 13 14
4 4 3 2 3 3 3 2 3 3 3 3 3 3 3 4 5 5 7 9 10 11 11 11 12 12 12 12 13 13 13 13 13 13 13 13 14 15
4 5 5 4 3 3 3 3 3 3 3 3 3 3 3 4 4 5 6 7 8 11 11 12 12 12 13 13 13 14 14 15 15 15 15 14 14 15
7 6 6 5 5 4 4 4 4 4 4 5 3 3 4 4 4 5 6 6 8 10 12 12 12 12 13 13 13 13 14 15 15 16 16 16 16 16
8 8 7 6 6 5 5 5 4 4 4 4 4 3 3 3 3 4 5 5 7 9 10 11 12 12 12 13 13 13 14 15 16 16 17 17 17 17
8 8 8 8 8 7 6 6 5 4 4 4 5 4 4 4 3 4 5 4 5 7 9 10 11 13 14 14 15 15 15 16 16 17 17 18 18 18
7 7 8 9 10 8 6 6 6 5 5 5 5 4 5 4 5 4 5 6 6 5 5 6 7 8 10 12 14 16 16 17 17 18 18 18 19 19
8 7 7 8 9 11 12 10 9 8 7 6 6 7 8 7 5 5 5 5 6 3 3 6 5 8 10 12 15 17 18 18 19 19 19 19 19 19
8 7 6 6 7 7 8 9 10 12 12 8 9 10 9 7 6 7 7 8 9 6 5 9 7 10 11 14 18 20 20 20 20 20 20 20 20 20
7 7 7 6 6 6 6 6 7 8 9 9 10 11 10 8 7 7 8 8 9 7 6 8 9 9 10 12 17 20 21 21 21 20 20 20 20 20
6 6 7 6 7 7 5 6 7 7 8 11 13 13 14 14 9 5 6 7 9 8 6 7 8 8 9 10 13 18 19 20 21 21 20 20 20 18
5 5 7 8 7 6 6 6 8 7 6 6 7 9 10 11 11 10 9 9 9 8 6 6 7 6 7 6 7 9 11 15 18 20 21 21 19 13
5 4 4 7 7 7 7 7 9 7 6 6 6 7 7 6 7 8 9 9 10 10 7 5 7 7 8 8 7 8 9 10 11 12 16 19 19 14
4 3 3 4 6 7 6 7 9 7 5 5 6 7 7 7 7 7 9 12 13 14 13 10 9 9 10 11 11 9 9 10 10 10 11 13 15 18
2 2 3 3 4 4 6 7 6 4 4 5 7 7 7 8 8 7 9 10 12 15 17 15 13 12 11 12 12 12 12 11 10 11 11 10 10 9
1 1 2 3 3 4 4 4 4 5 5 6 7 8 7 6 7 7 8 8 8 10 11 14 13 13 13 14 13 14 13 10 10 11 11 11 10 10
1 0 1 2 3 3 4 4 4 4 5 6 7 7 8 8 8 7 7 7 8 10 11 9 10 11 13 13 13 14 14 13 13 12 10 12 12 11
2 2 3 3 4 4 5 5 5 5 6 6 7 7 8 9 9 8 8 8 10 11 12 11 9 9 9 11 14 15 14 13 12 11 11 12 14 12
2 4 4 4 5 5 5 6 7 7 6 6 7 8 8 9 9 10 9 9 10 11 12 11 9 9 12 15 11 13 13 12 11 11 11 12 13 13
3 5 5 5 5 6 6 7 7 7 7 7 8 8 9 9 10 10 10 11 11 12 12 11 10 11 12 14 13 11 13 13 12 13 12 11 12 13
5 5 6 6 6 7 7 7 8 8 8 8 8 9 9 9 10 11 10 12 12 12 12 12 11 12 11 10 11 12 11 13 15 13 12 11 11 11
6 6 6 7 6 7 7 7 8 9 9 9 9 10 9 9 11 12 11 11 11 12 13 12 11 9 9 11 14 15 14 12 12 17 18 15 11 10
6 6 6 7 6 6 7 8 10 9 9 9 10 10 10 10 10 11 11 12 11 13 13 12 11 10 11 11 13 14 16 15 11 11 12 15 20 22
Wind_Direction
177 172 170 179 179 175 164 161 157 190 252 271 273 285 287 279 278 273 275 281 282 281 282 282 280 279 279 279 278 278 276 274 272 271 268 263 259 256
180 177 182 185 180 175 174 173 168 174 219 248 252 274 285 287 282 273 275 281 279 279 280 280 279 277 276 277 276 274 272 270 269 268 267 266 263 260
188 190 200 191 189 186 180 177 181 177 212 257 256 265 268 278 293 289 282 279 281 283 281 279 277 275 274 274 274 272 270 269 267 266 265 264 263 262
201 199 209 202 202 199 195 199 202 200 207 242 262 263 258 266 274 281 284 279 276 282 281 278 276 274 272 273 272 271 269 267 266 264 263 262 261 261
205 206 212 203 213 211 209 213 215 212 213 231 258 260 267 271 277 278 279 279 280 278 279 276 273 272 271 273 273 272 270 268 265 264 263 261 260 259
211 211 212 209 216 215 216 220 218 217 217 233 257 265 266 270 264 274 286 278 282 283 276 274 269 271 271 272 273 272 270 267 265 264 263 261 259 258
215 217 220 219 219 216 220 221 215 220 225 237 254 264 268 263 263 261 276 288 284 266 274 272 268 270 272 272 271 270 269 267 265 264 263 260 259 257
219 224 228 228 231 229 231 227 214 219 229 235 249 256 264 262 261 259 269 281 286 253 246 273 265 270 270 267 265 266 267 266 266 265 264 260 258 256
220 223 230 231 223 231 237 239 234 230 224 229 248 255 262 259 257 264 257 258 265 267 263 279 271 271 271 268 263 263 264 264 265 264 263 260 257 255
222 223 227 236 231 223 232 245 250 248 239 235 242 252 257 258 248 256 267 270 268 261 239 267 274 271 275 273 268 263 262 261 262 262 260 258 257 256
229 226 225 231 233 223 228 248 263 268 256 245 246 255 261 262 254 255 259 260 274 274 227 245 270 273 274 272 268 263 259 258 259 260 259 258 257 256
232 230 229 231 235 227 227 239 258 269 278 282 272 271 269 267 253 237 243 254 267 276 242 226 262 270 278 267 265 266 265 261 258 258 259 258 256 252
234 238 236 231 239 238 230 234 244 259 273 273 277 280 278 271 263 247 238 240 252 260 255 231 261 261 260 275 277 270 266 268 267 263 258 255 251 239
233 240 243 242 250 252 246 247 254 259 258 265 273 278 281 280 277 270 257 248 247 255 262 250 257 261 266 273 277 275 270 266 263 265 265 261 253 242
249 256 266 266 270 266 258 263 264 251 248 260 267 272 273 275 281 283 277 265 260 258 260 254 252 259 259 265 271 274 277 275 264 261 260 256 254 249
255 294 297 285 272 266 274 270 254 248 249 260 270 275 278 278 278 279 282 284 283 280 266 256 251 253 259 262 265 270 270 269 267 263 260 261 256 249
167 241 272 271 269 270 268 265 263 261 260 262 268 278 282 282 283 283 277 281 279 286 288 282 266 257 256 261 264 264 266 265 263 264 263 265 262 252
169 237 254 257 262 268 273 280 274 270 269 269 270 273 278 281 283 283 277 276 278 280 282 284 284 282 277 263 238 256 262 263 264 260 256 261 266 262
217 253 259 262 267 271 274 279 281 280 276 274 276 277 278 279 280 281 280 278 277 279 280 280 276 272 277 280 265 227 249 264 265 264 259 256 263 267
247 258 264 267 271 273 275 276 279 282 281 279 277 275 275 275 277 277 276 276 279 282 282 278 271 265 264 273 280 273 242 253 263 265 266 263 263 265
259 263 266 268 270 270 272 274 276 278 278 277 277 276 274 274 276 275 276 276 276 279 279 278 275 268 270 272 272 270 267 244 242 255 264 266 268 269
270 271 273 273 272 272 273 275 277 277 278 277 278 278 276 273 274 276 277 278 277 277 279 280 283 280 270 267 270 275 278 275 256 244 245 245 254 262
272 275 277 278 276 276 276 275 275 277 277 277 278 278 278 278 277 276 277 278 280 282 283 284 283 278 271 267 270 272 275 277 275 273 266 247 240 248
Height
1555 1556 1557 1558 1559 1560 1561 1561 1562 1562 1562 1562 1563 1563 1564 1564 1564 1564 1563 1563 1562 1561 1561 1560 1559 1559 1558 1558 1558 1558 1557 1557 1557 1558 1558 1558 1559 1559
1554 1554 1555 1556 1557 1558 1558 1559 1559 1560 1559 1559 1560 1560 1561 1561 1561 1560 1560 1559 1559 1558 1557 1556 1556 1555 1554 1554 1554 1553 1553 1553 1553 1553 1553 1553 1553 1554
1551 1552 1553 1554 1555 1555 1556 1556 1556 1557 1557 1557 1557 1557 1557 1557 1557 1557 1556 1555 1555 1554 1553 1553 1552 1551 1551 1550 1550 1549 1549 1549 1548 1548 1548 1548 1548 1548
1549 1550 1551 1552 1552 1553 1553 1553 1554 1554 1554 1553 1553 1553 1553 1553 1553 1552 1552 1551 1550 1550 1549 1548 1547 1547 1546 1545 1545 1544 1544 1544 1543 1543 1543 1543 1543 1542
1545 1546 1548 1549 1549 1550 1550 1550 1551 1551 1550 1550 1549 1550 1549 1549 1548 1548 1547 1546 1546 1545 1544 1543 1542 1542 1541 1540 1540 1539 1539 1538 1538 1537 1537 1537 1537 1537
1542 1543 1544 1545 1546 1547 1547 1547 1547 1547 1547 1546 1546 1545 1545 1544 1544 1543 1542 1541 1540 1540 1539 1538 1537 1536 1535 1534 1534 1533 1532 1532 1531 1531 1531 1530 1530 1530
1537 1538 1540 1541 1542 1542 1543 1543 1543 1543 1543 1542 1541 1541 1540 1540 1539 1538 1536 1535 1534 1534 1533 1532 1531 1530 1529 1528 1527 1526 1526 1525 1524 1524 1524 1523 1523 1523
1532 1533 1535 1536 1537 1538 1538 1538 1539 1538 1538 1537 1536 1536 1535 1535 1534 1533 1531 1529 1527 1528 1526 1525 1524 1522 1522 1521 1520 1519 1518 1517 1517 1516 1516 1516 1516 1516
1527 1528 1529 1530 1531 1532 1532 1533 1533 1533 1533 1532 1531 1530 1530 1529 1528 1526 1525 1523 1521 1521 1519 1516 1516 1515 1514 1513 1512 1511 1510 1509 1509 1508 1508 1508 1508 1508
1522 1523 1524 1525 1526 1526 1526 1526 1527 1527 1527 1526 1525 1524 1524 1523 1522 1520 1518 1516 1514 1514 1513 1509 1507 1506 1506 1504 1504 1503 1502 1501 1500 1500 1499 1499 1499 1499
1516 1517 1518 1519 1519 1520 1520 1520 1520 1520 1520 1519 1519 1518 1517 1516 1515 1513 1511 1509 1505 1505 1505 1502 1499 1498 1496 1495 1495 1494 1494 1493 1492 1491 1491 1491 1490 1490
1510 1511 1512 1512 1512 1513 1513 1513 1512 1512 1513 1512 1511 1510 1509 1508 1507 1506 1504 1502 1498 1496 1496 1494 1492 1490 1486 1485 1486 1486 1485 1484 1484 1483 1482 1482 1482 1481
1504 1505 1505 1505 1506 1506 1506 1506 1505 1505 1505 1504 1503 1502 1501 1500 1499 1498 1496 1494 1491 1489 1489 1487 1484 1483 1481 1477 1476 1477 1476 1476 1475 1474 1473 1473 1473 1472
1498 1499 1499 1499 1499 1499 1499 1499 1499 1498 1498 1497 1496 1495 1494 1493 1492 1490 1488 1486 1484 1482 1481 1479 1476 1475 1472 1469 1467 1467 1467 1467 1466 1464 1464 1464 1463 1463
1492 1492 1493 1493 1493 1493 1493 1493 1493 1492 1491 1490 1489 1488 1487 1485 1483 1481 1480 1478 1475 1474 1472 1471 1469 1466 1464 1461 1459 1458 1457 1456 1456 1455 1454 1454 1453 1453
1488 1488 1489 1489 1489 1489 1489 1488 1487 1487 1485 1484 1482 1481 1479 1477 1475 1474 1471 1469 1466 1464 1464 1462 1460 1458 1455 1453 1451 1448 1448 1446 1446 1446 1445 1444 1443 1443
1484 1485 1485 1484 1484 1484 1483 1483 1482 1481 1479 1477 1475 1473 1471 1469 1467 1466 1463 1461 1458 1455 1453 1453 1451 1449 1446 1444 1441 1439 1438 1437 1437 1437 1435 1433 1433 1432
1481 1481 1481 1480 1479 1478 1477 1476 1475 1474 1472 1470 1468 1466 1464 1462 1459 1458 1456 1453 1450 1448 1446 1444 1442 1439 1436 1433 1432 1430 1429 1428 1427 1427 1425 1423 1421 1422
1477 1477 1476 1475 1474 1473 1471 1470 1469 1467 1465 1463 1461 1459 1456 1454 1452 1450 1448 1445 1443 1440 1438 1436 1434 1431 1427 1423 1421 1422 1420 1418 1418 1417 1415 1414 1412 1412
1473 1472 1471 1470 1468 1467 1465 1464 1462 1460 1458 1456 1454 1451 1449 1447 1445 1442 1440 1438 1435 1432 1429 1427 1426 1423 1420 1416 1413 1411 1412 1410 1409 1407 1406 1405 1403 1402
1468 1467 1466 1464 1462 1461 1459 1457 1455 1453 1451 1449 1447 1444 1442 1440 1437 1435 1432 1430 1427 1424 1421 1418 1416 1415 1411 1408 1404 1400 1401 1401 1400 1399 1397 1396 1394 1393
1463 1461 1460 1458 1456 1454 1452 1450 1448 1446 1444 1442 1439 1437 1435 1432 1430 1427 1424 1422 1419 1416 1412 1409 1408 1406 1403 1400 1396 1393 1391 1391 1391 1390 1389 1388 1386 1384
1458 1456 1454 1452 1450 1448 1445 1443 1441 1438 1436 1434 1432 1429 1427 1424 1422 1419 1416 1414 1411 1407 1404 1401 1399 1397 1394 1391 1388 1385 1383 1382 1381 1379 1378 1378 1378 1376